AirNav   Everest Fuels
 
 428 users online  

VA73 Mazza Airport
Matoaca, Virginia, USA

GOING TO MATOACA?


FAA INFORMATION EFFECTIVE 16 JULY 2020

Location

FAA Identifier: VA73
Lat/Long: 37-14-40.5420N 077-29-38.9500W
37-14.675700N 077-29.649167W
37.2445950,-77.4941528
(estimated)
Elevation: 190 ft. / 58 m (estimated)
Variation: 08W (1985)
From city: 2 miles NW of MATOACA, VA
Time zone: UTC -4 (UTC -5 during Standard Time)
Zip code: 23803

Airport Operations

Airport use: Private use. Permission required prior to landing
Activation date: 03/1967
Control tower: no
ARTCC: WASHINGTON CENTER
FSS: LEESBURG FLIGHT SERVICE STATION
Attendance: UNATNDD
Wind indicator: yes
Segmented circle: no

Airport Communications

WX AWOS-3 at PTB (4 nm S): 133.325 (804-861-5551)
WX AWOS-3PT at FCI (10 nm N): 128.625 (804-271-8426)
WX ASOS at RIC (18 nm NE): PHONE 804-236-1091

Nearby radio navigation aids

VOR radial/distance  VOR name  Freq  Var
RICr217/17.5RICHMOND VORTAC114.1009W
HPWr260/18.7HOPEWELL VORTAC112.0006W
FAKr143/23.3FLAT ROCK VORTAC113.3006W
LVLr045/32.2LAWRENCEVILLE VORTAC112.9008W
HCMr259/39.3HARCUM VORTAC108.8007W
FKNr333/39.3FRANKLIN VORTAC110.6009W

 
NDB name  Hdg/Dist  Freq  Var  ID
BLACKSTONE084/27.232609WBKT -... -.- -
WAKEFIELD315/28.327411WAKQ .- -.- --.-

Airport Services

Airframe service: NONE
Powerplant service: NONE

Runway Information

Runway 9/27

Dimensions: 3100 x 250 ft. / 945 x 76 m
Surface: turf
RUNWAY 9  RUNWAY 27
Traffic pattern: leftleft
Obstructions: 50 ft. trees, 500 ft. from runwaynone

Airport Ownership and Management from official FAA records

Ownership: Privately-owned
Owner: JOHN V. MAZZA
20501 LITTLE ROAD
SOUTH CHESTERFIELD, VA 23803
Phone (804) 536-4040
Manager: JOHN V. MAZZA
20501 LITTLE ROAD
SOUTH CHESTERFIELD, VA 23803
Phone (804) 536-4040

Airport Operational Statistics

Aircraft based on the field: 1
Single engine airplanes: 1
    

Additional Remarks

FOR CD CTC POTOMAC APCH AT 866-640-4124.

Instrument Procedures

There are no published instrument procedures at VA73.

Some nearby airports with instrument procedures:

KPTB - Dinwiddie County Airport (4 nm S)
KFCI - Richmond Executive Airport-Chesterfield County (10 nm N)
KRIC - Richmond International Airport (18 nm NE)
W96 - New Kent County Airport (23 nm NE)
KBKT - Allen C Perkinson Airport/Blackstone Army Airfield (24 nm SW)
 
Loc | Ops | Rwys | IFR | FBO | Links
Com | Nav | Svcs | Stats | Notes
Area around VA73 (Mazza Airport)
 
Road maps at: MapQuest Bing Google
 
Aerial photo
No photo
 
Sectional chart

 
Airport distance calculator
Flying to Mazza Airport? Find the distance to fly.

From to VA73

Sunrise and sunset
Times for 12-Aug-2020
 Local
(UTC-4)
 Zulu
(UTC)
Morning civil twilight05:5809:58
Sunrise06:2610:26
Sunset20:0400:04
Evening civil twilight20:3200:32

Current date and time
Zulu (UTC)  12-Aug-2020 07:12:09
Local (UTC-4)  12-Aug-2020 03:12:09
 
METAR
KPTB 
5nm S 
120655Z AUTO 00000KT 7SM CLR 23/22 A2999 RMK AO2 LTG DSNT NW T02330221
KFCI 
10nm N 
120656Z AUTO 00000KT 10SM CLR 24/24 A2998 RMK AO2 SLP161 T02390239
KRIC 
18nm NE 
120654Z 00000KT 10SM FEW060 25/23 A2998 RMK AO2 SLP154 T02500228
TAF
KRIC 
18nm NE 
120520Z 1206/1306 18005KT P6SM SCT040 TEMPO 1209/1212 3SM BR BKN005 FM121800 17005KT P6SM VCSH BKN040 FM130300 VRB03KT P6SM BKN030
NOTAMs
Click for the latest NOTAMs
NOTAMs are issued by the DoD/FAA and will open in a separate window not controlled by AirNav.

 

 
 

Would you like to see your business listed on this page?

 If your business provides an interesting product or service to pilots, flight crews, aircraft, or users of the Mazza Airport, you should consider listing it here.  To start the listing process, click on the button below
 
Add a business
 

Other Pages about Mazza Airport

Update a link
 
Copyright © AirNav, LLC. All rights reserved. Privacy Policy  Contact